小惑星2011 WS41

2011 WS41

English version
Home page
Updated on December 8, 2011

---------------------------------------------------------------------

・ プロフィール

発見日 2011年11月24日
発見光度 21.7等
発見者 Pan-STARRS 1 telescope (Haleakala)

・ 写真集

・ 軌道要素

The following orbital elements are taken from MPEC 2011-X12:

Epoch 2011 Nov. 15.0 TT = JDT 2455880.5                 MPC
M   0.53526              (2000.0)            P               Q
n   0.00415653     Peri.  326.49167     -0.64045407     +0.48206536
a  38.3102762      Node   105.53852     +0.76690728     +0.44288277
e   0.9456427      Incl.  141.64471     -0.04088776     +0.75595492
P 237              H   17.7           G   0.15
From 16 observations 2011 Nov. 24-30.

・ 光度変化

        H = 17.7  G = 0.15

---------------------------------------------------------------------

軌道要素はMPCのEphemerides and Orbital Elementsに掲載されたものです。
光度グラフはComet for Windowsで作成したものです。

---------------------------------------------------------------------

Copyright(C) Seiichi Yoshida (comet@aerith.net). All rights reserved.